Wind_Speed
28 28 29 32 31 32 24 17 13 19 33 42 39 28 27 24 23 26 34 28 34 20 22 21 22 21 21 22 24 19 17 14 16 16 12 7 10 9 6 3 2 2 5 6 2 4 6 8 9
31 30 30 31 35 33 30 16 7 26 38 43 39 32 29 27 30 32 41 28 34 22 24 22 24 23 23 23 24 20 20 19 17 17 13 10 12 12 8 4 2 2 5 6 3 3 5 8 10
30 32 33 37 37 36 31 22 21 33 42 48 45 39 37 35 36 32 40 32 28 33 26 24 25 25 26 23 25 20 19 18 18 17 12 12 13 15 10 6 4 3 2 5 3 4 5 8 11
30 32 38 40 40 41 38 33 30 37 43 47 46 44 41 45 39 38 42 33 29 39 26 26 27 27 29 24 24 22 19 19 18 15 13 10 14 17 13 8 6 4 1 2 4 5 5 8 12
34 38 42 45 46 39 41 40 37 38 44 47 47 47 48 46 47 40 47 32 35 40 30 28 31 29 29 26 24 25 20 20 19 15 13 12 16 20 17 12 10 7 3 2 4 6 6 7 12
38 39 42 46 48 42 43 41 31 44 43 42 44 48 49 51 51 47 53 35 36 40 36 31 34 31 30 28 25 26 21 21 19 17 14 13 18 22 20 15 13 10 7 5 3 6 6 7 9
40 42 45 50 49 44 40 43 50 49 47 46 46 48 52 49 55 53 48 41 41 44 39 35 34 33 32 29 27 28 24 20 20 18 16 15 19 24 24 19 16 14 10 8 6 5 7 8 9
46 49 53 48 44 49 46 44 48 51 53 58 51 51 50 53 53 57 47 46 43 45 44 35 36 35 35 33 29 29 27 22 20 20 18 18 20 26 27 23 19 18 14 11 9 6 9 8 9
49 52 56 50 51 50 50 53 53 55 61 66 58 53 48 51 53 53 49 49 44 49 39 37 38 37 39 36 33 30 30 24 20 22 21 23 21 25 30 26 22 20 17 14 12 10 8 11 10
51 56 56 56 56 58 57 58 58 59 61 65 67 54 46 46 48 51 47 52 53 45 44 42 41 43 42 38 35 32 32 26 21 23 24 24 23 24 32 29 26 22 20 18 15 13 9 12 11
55 61 59 62 66 64 63 58 50 53 54 57 58 55 55 49 49 54 51 50 58 55 51 53 51 47 46 41 36 35 32 30 25 24 26 25 24 26 30 34 29 23 20 18 18 15 13 10 14
61 63 68 72 71 72 61 53 52 46 48 45 44 48 50 52 48 50 50 56 58 59 63 58 54 53 48 44 41 37 36 34 31 25 28 28 25 27 28 36 31 26 23 20 20 19 17 14 13
67 69 66 60 50 48 48 50 45 47 41 46 46 47 45 49 49 46 45 43 49 52 51 54 52 47 48 48 45 40 39 38 36 32 27 29 28 29 30 36 35 30 26 23 24 23 21 18 16
62 53 47 42 41 44 48 47 48 40 45 47 48 48 48 52 52 51 50 46 46 47 44 44 47 44 44 47 46 45 41 41 40 39 29 29 29 31 34 36 39 33 29 27 28 27 25 23 21
51 49 44 37 41 47 51 47 41 42 46 48 48 49 50 54 57 56 54 50 46 45 48 46 50 49 41 46 46 47 43 44 43 40 34 33 30 32 36 38 42 39 35 33 31 27 27 26 22
49 48 48 41 44 49 55 46 41 42 49 52 51 53 55 57 57 59 60 61 57 48 51 52 51 53 45 45 48 49 48 46 46 42 40 36 33 34 35 41 49 45 40 37 34 35 28 30 27
48 50 51 50 49 56 58 55 54 56 58 58 58 59 63 63 66 67 64 59 60 46 52 52 55 59 57 45 47 51 50 47 48 46 45 40 37 34 35 41 50 43 41 40 41 35 33 33 30
51 51 53 56 54 58 60 64 62 61 61 64 65 67 66 69 69 71 69 66 65 63 64 53 59 58 62 55 51 53 54 53 51 49 45 45 40 36 39 44 49 49 44 46 43 38 36 35 30
54 56 59 60 62 67 68 70 65 65 65 65 69 73 75 78 78 75 73 71 71 71 66 62 60 64 63 61 56 58 55 53 48 43 47 49 44 41 40 48 49 52 52 47 45 42 37 36 34
56 59 61 60 66 70 70 70 68 65 70 77 77 81 84 86 86 87 88 81 78 73 71 65 56 50 73 63 59 60 59 56 55 49 47 52 48 47 42 49 50 52 51 49 48 41 40 36 29
60 63 64 69 67 69 68 72 52 54 59 59 60 65 71 75 75 73 76 80 84 87 79 76 68 65 64 68 63 62 63 59 59 55 53 54 52 52 47 53 53 55 56 50 47 42 39 39 36
63 65 69 71 70 63 52 40 28 27 26 26 34 39 43 39 36 44 45 33 45 54 76 72 69 78 64 56 60 63 57 61 67 57 55 57 54 56 51 51 57 56 63 54 50 48 46 48 47
66 67 67 60 37 19 8 16 30 25 27 31 31 35 35 44 49 50 41 44 36 35 42 64 67 70 72 70 53 62 65 63 63 57 59 58 57 56 49 52 58 49 58 51 56 49 48 49 48
62 54 38 19 9 9 12 18 30 29 29 34 26 32 36 38 40 45 48 47 52 50 50 43 75 62 64 67 63 60 65 65 63 61 63 53 52 49 50 53 56 49 55 58 58 56 57 56 53
39 28 15 8 5 7 25 27 30 29 29 26 31 35 37 40 44 46 46 49 51 49 51 48 72 73 75 58 60 56 61 64 65 61 57 54 53 54 52 55 53 50 50 54 59 61 60 57 55
16 9 8 7 5 8 24 23 21 20 24 27 31 34 35 31 25 29 35 40 45 39 47 48 58 77 67 50 64 66 59 62 64 64 59 57 58 61 53 50 54 54 51 52 56 58 60 59 58
13 12 10 10 6 16 6 11 14 17 18 21 23 33 35 35 30 23 25 21 22 33 30 42 52 67 78 64 67 57 57 60 67 65 58 58 57 73 60 57 54 56 57 58 55 55 57 57 55
17 8 7 15 10 5 6 2 5 12 17 23 26 31 30 27 29 28 20 15 21 31 38 39 44 64 70 64 70 66 64 64 67 64 64 62 64 54 59 61 57 61 57 59 56 55 53 52 50
9 13 17 10 6 6 9 10 7 13 19 22 24 28 28 24 23 22 19 15 26 18 20 34 40 46 64 65 66 76 55 60 54 61 62 65 68 67 47 65 61 59 61 61 59 56 54 52 49
20 17 7 4 8 11 16 9 1 8 16 15 12 12 16 15 15 16 17 20 15 23 4 32 30 46 61 61 60 63 60 55 65 56 67 54 62 64 47 54 58 61 65 63 60 58 55 54 48
Wind_Direction
288 287 286 288 288 288 286 287 267 248 273 272 265 274 273 278 265 254 268 274 284 289 287 290 295 297 303 310 312 324 333 320 314 313 310 276 219 211 196 218 279 350 34 30 134 139 158 144 145
289 288 289 290 289 284 291 293 327 272 265 269 278 278 272 268 259 260 270 266 284 279 281 285 289 292 298 301 307 320 322 323 316 312 305 279 217 213 204 199 223 286 23 37 111 132 150 149 145
286 287 288 298 298 287 284 266 207 260 256 265 277 277 275 270 265 264 268 272 271 277 276 280 284 290 294 296 300 309 314 316 309 305 296 278 225 214 206 190 196 226 28 39 117 138 145 150 144
274 285 282 285 300 294 287 279 263 242 261 270 270 273 274 272 267 269 264 274 269 278 278 279 279 286 289 288 293 299 307 309 302 295 288 264 232 216 210 196 189 206 261 50 108 138 144 143 147
274 282 284 286 297 301 286 283 280 267 260 264 272 275 273 268 275 267 269 270 274 277 279 274 278 282 289 288 288 291 301 302 297 290 275 256 224 216 215 196 191 190 231 163 95 140 146 143 151
278 280 284 287 292 297 291 283 276 284 281 266 269 268 265 271 266 270 271 280 270 274 279 276 279 276 282 285 286 286 290 292 292 284 270 252 225 213 219 205 189 191 190 184 127 160 149 146 145
275 276 277 281 289 290 292 283 278 281 276 272 272 273 272 272 274 268 273 273 273 276 276 277 275 275 276 279 284 284 286 283 286 279 268 252 232 215 218 215 195 188 190 198 178 156 163 157 146
281 280 281 284 290 290 292 284 277 274 275 274 269 270 273 266 269 278 275 270 271 276 279 272 275 274 274 275 277 280 282 280 278 273 265 252 236 224 217 218 209 193 192 200 198 177 171 162 151
277 277 277 283 287 289 287 282 277 274 276 282 279 272 271 271 270 271 272 273 268 270 281 278 277 272 276 270 269 271 274 274 268 268 262 256 241 231 221 219 216 204 196 206 206 199 174 169 163
279 279 282 286 287 292 291 284 281 278 273 277 283 279 270 266 269 271 269 271 267 264 276 277 275 272 271 268 264 267 268 270 263 262 261 258 250 234 225 222 221 215 203 206 208 204 190 180 175
278 279 283 284 288 288 288 288 282 277 281 277 276 277 277 268 261 264 268 264 268 269 272 276 275 272 269 265 259 263 264 268 261 258 260 254 247 237 230 222 222 220 218 214 211 205 199 192 184
278 283 282 281 285 284 287 282 278 281 280 284 278 273 279 284 273 270 265 265 266 270 276 273 269 270 264 264 262 259 261 265 264 257 256 253 244 239 231 226 221 220 215 214 208 210 207 201 192
288 289 288 287 283 282 278 280 284 278 287 281 280 281 281 279 279 275 271 265 264 267 268 275 275 266 264 264 263 261 260 261 262 259 252 250 245 236 227 226 219 220 216 216 221 213 209 208 202
291 291 291 289 289 284 282 281 279 291 281 277 278 278 279 278 277 275 272 269 266 268 264 268 271 265 261 261 261 261 259 260 259 260 252 249 247 235 221 223 217 218 217 217 221 216 208 209 208
289 290 291 295 288 285 283 279 286 282 281 280 281 278 275 276 277 276 275 269 265 264 265 257 265 268 254 254 255 257 257 258 256 258 253 247 243 237 232 214 216 212 215 217 225 224 221 215 212
291 291 291 290 288 285 283 280 284 279 277 279 280 278 278 277 274 275 274 272 271 262 260 259 254 263 257 248 253 253 255 255 254 253 252 249 243 240 241 208 217 212 213 218 223 220 211 215 214
291 292 293 290 290 289 293 287 293 290 287 284 278 278 277 272 270 269 268 266 265 269 258 250 250 255 258 241 245 248 252 249 251 251 251 248 243 239 230 209 214 219 209 218 221 227 210 213 218
290 292 292 294 294 290 290 292 290 288 285 280 280 278 273 270 267 265 263 263 259 254 252 243 240 237 251 249 237 241 244 246 246 247 248 251 246 237 232 211 207 217 211 219 222 220 222 218 224
296 296 295 297 294 290 290 288 287 283 278 277 273 270 269 267 266 265 263 260 257 255 252 254 236 232 241 241 235 237 241 244 244 247 243 248 245 237 228 217 208 217 219 220 226 222 223 223 222
296 295 294 293 291 291 288 289 286 284 277 274 272 270 269 268 266 263 260 253 247 248 246 238 241 239 232 241 235 235 237 239 246 246 239 240 241 238 225 222 214 219 231 224 224 226 223 227 232
296 296 295 294 293 294 297 293 287 283 280 281 274 270 266 263 262 265 263 262 255 248 239 236 221 225 239 240 233 234 235 238 241 240 234 228 235 235 227 220 220 217 227 230 233 225 225 226 235
301 301 299 298 296 297 295 289 279 274 281 281 274 272 261 257 260 262 262 249 242 250 246 235 214 224 223 225 231 226 235 232 235 236 232 223 225 231 231 232 225 218 219 227 232 234 233 232 238
301 300 299 301 309 319 309 318 286 282 278 282 284 284 282 280 286 282 264 253 248 238 237 227 221 223 228 221 230 221 217 231 238 234 231 231 218 226 232 233 234 227 220 224 229 234 236 240 240
301 302 310 319 353 25 278 264 270 275 279 283 284 291 285 283 273 270 270 263 266 259 250 222 217 215 219 216 224 220 220 224 229 235 236 234 217 222 230 231 230 228 220 223 230 235 236 241 244
304 310 315 259 244 263 284 294 292 294 287 306 292 308 304 296 288 265 261 261 255 246 237 219 208 209 219 226 217 224 216 222 227 230 232 239 224 223 219 230 229 231 228 224 226 231 236 240 243
322 308 310 288 234 294 296 286 280 293 314 319 316 318 331 321 296 287 277 271 254 239 231 221 209 205 214 210 212 224 216 217 226 227 227 230 231 230 216 226 228 229 230 229 228 231 233 238 242
297 259 274 295 302 288 298 312 300 318 337 337 338 350 333 342 335 288 298 282 235 227 237 222 209 204 208 212 216 215 209 217 224 224 231 232 234 226 221 217 224 226 229 230 230 231 232 236 241
314 263 271 290 297 268 289 11 340 3 357 354 354 354 343 344 335 334 313 293 284 240 222 215 209 204 203 206 210 220 224 217 223 219 225 226 227 220 225 217 217 223 228 225 225 229 233 237 242
300 290 318 298 309 227 257 302 358 9 2 349 350 344 351 343 342 340 345 336 293 299 267 210 213 204 205 204 209 215 223 225 212 219 227 230 222 220 220 215 218 222 221 220 225 228 232 237 240
348 341 353 300 292 236 254 256 17 14 1 13 19 2 19 13 343 14 10 358 311 307 276 210 199 208 202 199 214 215 219 227 222 220 227 240 227 233 209 202 219 221 220 221 225 229 231 234 238
Height
5879 5878 5876 5875 5879 5876 5880 5884 5885 5886 5880 5873 5871 5877 5876 5878 5876 5873 5866 5869 5865 5872 5870 5870 5868 5867 5866 5864 5862 5863 5863 5862 5861 5860 5860 5860 5861 5860 5859 5859 5860 5859 5857 5857 5856 5856 5856 5855 5857
5874 5874 5872 5871 5870 5872 5876 5879 5885 5880 5871 5867 5867 5871 5873 5872 5869 5867 5858 5867 5861 5868 5866 5866 5864 5863 5863 5862 5859 5860 5861 5861 5860 5858 5858 5859 5859 5859 5858 5858 5859 5859 5858 5857 5856 5857 5857 5856 5857
5868 5869 5868 5864 5866 5867 5870 5875 5878 5871 5867 5865 5863 5863 5864 5864 5862 5864 5855 5862 5861 5860 5863 5863 5862 5860 5860 5860 5857 5857 5857 5857 5856 5856 5855 5857 5857 5858 5857 5856 5857 5858 5858 5857 5857 5857 5857 5857 5857
5862 5863 5860 5859 5859 5861 5861 5863 5868 5866 5860 5858 5858 5856 5858 5852 5856 5855 5848 5857 5858 5852 5860 5859 5858 5857 5856 5856 5854 5853 5854 5854 5853 5852 5852 5854 5856 5856 5856 5855 5856 5857 5857 5857 5857 5858 5858 5857 5857
5856 5857 5852 5850 5852 5857 5856 5856 5855 5857 5856 5851 5851 5850 5847 5847 5845 5850 5843 5854 5852 5848 5856 5854 5854 5854 5853 5852 5850 5849 5849 5850 5850 5849 5849 5851 5853 5854 5854 5853 5854 5856 5857 5857 5857 5858 5858 5858 5858
5848 5848 5847 5844 5846 5849 5849 5849 5846 5842 5846 5844 5843 5841 5840 5839 5839 5840 5833 5848 5844 5845 5848 5850 5849 5849 5849 5848 5848 5846 5846 5846 5846 5846 5846 5848 5850 5851 5853 5852 5852 5854 5856 5857 5857 5857 5858 5859 5859
5840 5839 5836 5834 5837 5841 5843 5843 5839 5835 5831 5836 5834 5834 5834 5836 5828 5829 5835 5840 5837 5835 5841 5843 5843 5844 5843 5844 5844 5842 5842 5843 5843 5843 5844 5845 5847 5848 5851 5851 5850 5852 5855 5856 5856 5857 5858 5859 5859
5831 5828 5827 5829 5830 5829 5832 5832 5830 5828 5821 5818 5823 5826 5828 5824 5824 5820 5829 5830 5828 5828 5831 5836 5836 5837 5838 5839 5840 5839 5837 5840 5839 5839 5841 5841 5843 5845 5847 5849 5850 5850 5853 5855 5856 5857 5857 5858 5859
5821 5817 5814 5819 5819 5820 5821 5817 5817 5817 5811 5805 5810 5814 5817 5817 5815 5814 5818 5819 5823 5819 5822 5824 5829 5829 5830 5832 5834 5834 5831 5834 5835 5835 5836 5837 5838 5841 5843 5847 5848 5848 5850 5853 5855 5856 5857 5858 5859
5812 5808 5808 5810 5807 5806 5807 5804 5804 5805 5803 5799 5791 5798 5806 5808 5805 5805 5807 5808 5811 5815 5813 5815 5819 5822 5821 5824 5827 5827 5826 5828 5830 5831 5832 5833 5835 5837 5840 5844 5846 5847 5848 5851 5853 5855 5856 5857 5858
5805 5796 5800 5799 5794 5793 5791 5793 5793 5788 5789 5788 5788 5790 5786 5792 5796 5794 5797 5798 5795 5801 5805 5805 5808 5811 5813 5816 5819 5821 5821 5821 5823 5826 5827 5828 5831 5832 5835 5839 5843 5846 5848 5849 5852 5854 5855 5856 5858
5790 5791 5789 5786 5782 5778 5779 5779 5778 5780 5778 5780 5777 5776 5777 5774 5779 5784 5786 5786 5788 5788 5784 5793 5799 5800 5804 5807 5809 5814 5815 5815 5815 5819 5821 5822 5824 5827 5831 5835 5840 5844 5845 5847 5850 5851 5853 5855 5857
5779 5776 5772 5770 5767 5768 5763 5765 5769 5765 5774 5768 5767 5767 5768 5766 5766 5769 5772 5774 5776 5777 5779 5777 5781 5791 5794 5797 5800 5805 5807 5808 5808 5810 5814 5816 5818 5821 5826 5829 5836 5840 5841 5843 5846 5848 5851 5853 5855
5763 5762 5761 5761 5761 5755 5750 5758 5756 5766 5757 5755 5755 5756 5757 5754 5754 5756 5758 5764 5766 5766 5768 5767 5770 5778 5784 5787 5790 5793 5798 5800 5801 5802 5807 5809 5811 5814 5817 5823 5830 5834 5838 5839 5841 5844 5848 5851 5853
5751 5749 5749 5756 5750 5743 5737 5746 5752 5750 5745 5744 5744 5744 5743 5742 5739 5741 5743 5749 5753 5755 5755 5756 5758 5762 5772 5775 5779 5782 5788 5791 5793 5795 5798 5800 5803 5807 5810 5815 5822 5827 5833 5833 5836 5840 5843 5848 5850
5739 5738 5737 5744 5740 5732 5721 5737 5740 5737 5732 5729 5728 5725 5724 5724 5723 5724 5727 5729 5735 5740 5742 5744 5744 5751 5759 5764 5768 5771 5775 5782 5783 5787 5789 5791 5796 5799 5800 5805 5814 5818 5825 5828 5830 5834 5838 5842 5846
5729 5727 5725 5727 5727 5715 5711 5722 5721 5718 5715 5715 5710 5712 5709 5706 5705 5704 5709 5712 5716 5720 5727 5731 5731 5731 5743 5752 5754 5758 5762 5769 5772 5777 5781 5783 5788 5791 5794 5798 5805 5812 5816 5821 5823 5829 5833 5837 5840
5717 5717 5715 5709 5712 5706 5702 5703 5705 5699 5697 5691 5692 5690 5689 5685 5685 5685 5690 5694 5697 5703 5704 5713 5718 5720 5724 5734 5741 5744 5748 5754 5760 5765 5771 5774 5780 5783 5788 5790 5796 5803 5807 5814 5815 5823 5827 5832 5835
5704 5701 5699 5695 5691 5689 5686 5685 5689 5681 5674 5674 5671 5664 5659 5657 5661 5663 5668 5677 5677 5681 5687 5693 5700 5706 5703 5715 5725 5729 5736 5742 5748 5754 5762 5764 5768 5775 5779 5783 5787 5794 5799 5807 5811 5814 5819 5825 5829
5689 5685 5684 5688 5672 5667 5670 5667 5666 5653 5643 5642 5647 5640 5637 5637 5637 5633 5631 5638 5645 5657 5663 5672 5685 5685 5690 5695 5711 5716 5724 5729 5737 5743 5749 5755 5758 5764 5770 5775 5779 5787 5793 5797 5802 5809 5812 5817 5821
5672 5666 5664 5661 5660 5649 5642 5643 5630 5628 5620 5621 5618 5615 5612 5610 5607 5606 5608 5611 5618 5622 5631 5638 5653 5666 5672 5680 5694 5703 5709 5714 5718 5726 5733 5740 5746 5752 5759 5767 5772 5779 5785 5789 5798 5803 5807 5812 5816
5657 5647 5642 5638 5635 5636 5627 5624 5609 5612 5609 5605 5601 5599 5597 5594 5591 5588 5586 5585 5587 5596 5607 5621 5633 5637 5656 5664 5674 5686 5695 5698 5705 5714 5722 5719 5735 5741 5748 5757 5764 5770 5776 5780 5788 5795 5800 5802 5807
5638 5630 5624 5620 5619 5619 5617 5616 5602 5602 5601 5598 5594 5591 5590 5585 5582 5580 5578 5578 5578 5579 5586 5601 5610 5624 5636 5640 5644 5671 5680 5690 5698 5702 5707 5712 5722 5729 5738 5747 5751 5760 5767 5772 5778 5785 5789 5794 5798
5621 5616 5613 5612 5613 5616 5611 5610 5594 5595 5593 5592 5590 5587 5583 5576 5573 5569 5567 5567 5568 5571 5575 5578 5595 5610 5613 5624 5638 5654 5666 5677 5685 5690 5696 5695 5699 5717 5727 5733 5740 5750 5757 5765 5770 5776 5780 5785 5790
5612 5608 5608 5610 5612 5613 5599 5596 5588 5590 5590 5587 5585 5579 5572 5564 5556 5552 5551 5551 5553 5556 5558 5564 5575 5592 5605 5619 5631 5638 5653 5664 5671 5680 5689 5691 5695 5706 5715 5723 5732 5739 5748 5755 5762 5766 5770 5777 5782
5605 5606 5604 5602 5606 5605 5598 5593 5590 5590 5587 5583 5577 5571 5562 5554 5547 5542 5539 5536 5535 5539 5544 5548 5556 5574 5591 5603 5622 5627 5640 5650 5659 5668 5676 5685 5693 5697 5705 5713 5722 5729 5738 5746 5751 5757 5761 5765 5770
5606 5604 5603 5602 5603 5598 5594 5592 5591 5589 5584 5579 5576 5566 5560 5549 5543 5536 5530 5526 5525 5527 5534 5540 5547 5560 5579 5596 5603 5605 5627 5635 5643 5654 5658 5672 5680 5682 5690 5697 5708 5717 5723 5731 5740 5746 5751 5754 5760
5603 5602 5603 5601 5600 5595 5593 5593 5591 5588 5583 5579 5572 5568 5559 5552 5544 5534 5526 5525 5524 5524 5528 5534 5541 5551 5568 5584 5594 5600 5612 5622 5628 5639 5649 5653 5657 5654 5676 5686 5693 5700 5707 5718 5727 5734 5740 5743 5749
5603 5601 5600 5599 5597 5595 5592 5592 5589 5586 5583 5579 5571 5567 5561 5556 5549 5539 5530 5524 5522 5523 5523 5529 5538 5547 5560 5573 5584 5587 5600 5611 5614 5628 5637 5637 5644 5639 5633 5672 5680 5686 5694 5704 5712 5720 5727 5732 5738
5600 5598 5596 5596 5594 5593 5592 5592 5589 5588 5586 5581 5576 5571 5564 5558 5551 5543 5535 5528 5525 5525 5526 5528 5534 5545 5555 5565 5575 5583 5593 5605 5607 5618 5622 5627 5637 5643 5643 5649 5665 5674 5683 5690 5699 5707 5714 5720 5726